C/2022 Q2 ( ATLAS )

Japanese version
Home page
Updated on September 26, 2022

---------------------------------------------------------------------

* Profile

Discovery Date August 27, 2022
Magnitude 19.0 mag
Discoverer Asteroid Terrestrial-Impact Last Alert System (ATLAS) search program

* Pictures

* Orbital Elements

Epoch 2022 Aug. 9.0 TT = JDT 2459800.5
T 2023 Feb. 1.36044 TT                                  Rudenko
q   1.6401044            (2000.0)            P               Q
n   0.00693532     Peri.   44.47595     +0.63308245     -0.77188103
a  27.2327719      Node   352.98771     -0.77351429     -0.62792247
e   0.9397746      Incl.  151.44081     +0.02970273     +0.09956432
P 142
From 110 observations 2022 Aug. 27-Sept. 7, mean residual 0".4.

* Magnitudes Graph

        m1 = 13.5 + 5 log d + 10.0 log r

---------------------------------------------------------------------

The orbital elements are published on M.P.E.C. 2022-R139.
The magnitudes graphs are made with Comet for Windows.

---------------------------------------------------------------------

Copyright(C) Seiichi Yoshida (comet@aerith.net). All rights reserved.